DW4174 Weather Reports


Display with metric or nautical units.
time (UTC)temp
F
wind
direction
speed
MPH
gust
MPH
rain 1hr
in
rain 24hr
in
rain mn
in
humidity
%
barometer
mb
20260510191735 102 222 3.0 7.0 0.00 0.00 0.00 8 1009.8
20260510190835 102 151 3.0 7.0 0.00 0.00 0.00 9 1009.9
20260510185035 101 226 4.0 10.0 0.00 0.00 0.00 9 1010.1
20260510184135 100 107 3.0 8.0 0.00 0.00 0.00 9 1010.2
20260510183235 100 176 3.0 7.0 0.00 0.00 0.00 9 1010.2
20260510182335 99 189 2.0 8.0 0.00 0.00 0.00 10 1010.3
20260510181435 99 206 2.0 7.0 0.00 0.00 0.00 9 1010.3
20260510180535 98 131 4.0 8.0 0.00 0.00 0.00 9 1010.4
20260510175635 98 177 3.0 8.0 0.00 0.00 0.00 9 1010.4
20260510174735 98 118 3.0 7.0 0.00 0.00 0.00 9 1010.4
20260510173835 96 165 3.0 7.0 0.00 0.00 0.00 10 1010.5
20260510172935 96 144 2.0 9.0 0.00 0.00 0.00 10 1010.4
20260510172035 96 132 2.0 9.0 0.00 0.00 0.00 10 1010.4
20260510170234 94 97 2.0 6.0 0.00 0.00 0.00 12 1010.4
20260510165335 93 110 2.0 4.0 0.00 0.00 0.00 11 1010.3
20260510164435 92 105 1.0 8.0 0.00 0.00 0.00 11 1010.4
20260510162635 91 90 1.0 6.0 0.00 0.00 0.00 13 1010.2
20260510161735 90 95 1.0 4.0 0.00 0.00 0.00 12 1010.2
20260510160835 89 96 1.0 6.0 0.00 0.00 0.00 13 1010.1
20260510155934 89 0 0.0 0.0 0.00 0.00 0.00 14 1010.1
20260510155034 88 78 1.0 3.0 0.00 0.00 0.00 15 1010.0
20260510154135 87 82 2.0 4.0 0.00 0.00 0.00 15 1010.1
20260510152335 86 83 2.0 4.0 0.00 0.00 0.00 15 1010.1
20260510150535 84 87 3.0 7.0 0.00 0.00 0.00 17 1009.9
20260510145634 83 94 3.0 6.0 0.00 0.00 0.00 18 1010.0
20260510144736 83 92 3.0 6.0 0.00 0.00 0.00 18 1010.0
20260510143834 82 101 3.0 6.0 0.00 0.00 0.00 18 1010.0
20260510142934 81 114 2.0 4.0 0.00 0.00 0.00 19 1009.9
20260510142035 80 116 2.0 4.0 0.00 0.00 0.00 20 1009.8
20260510140234 78 99 2.0 4.0 0.00 0.00 0.00 20 1009.7
20260510135334 77 90 1.0 3.0 0.00 0.00 0.00 23 1009.6
20260510134434 76 87 2.0 4.0 0.00 0.00 0.00 23 1009.6
20260510133534 75 85 2.0 4.0 0.00 0.00 0.00 23 1009.5
20260510132634 74 53 2.0 4.0 0.00 0.00 0.00 24 1009.4
20260510131734 73 49 2.0 3.0 0.00 0.00 0.00 26 1009.3
20260510130834 72 78 2.0 5.0 0.00 0.00 0.00 27 1009.1
20260510125934 72 98 2.0 4.0 0.00 0.00 0.00 26 1008.9
20260510125035 71 98 2.0 4.0 0.00 0.00 0.00 27 1008.8
20260510124134 71 97 1.0 4.0 0.00 0.00 0.00 28 1008.5
20260510121434 71 98 1.0 2.0 0.00 0.00 0.00 29 1008.5
20260510120534 72 98 1.0 3.0 0.00 0.00 0.00 28 1008.5
20260510115634 73 97 2.0 3.0 0.00 0.00 0.00 27 1008.4
20260510114734 73 91 2.0 9.0 0.00 0.00 0.00 27 1008.3
20260510113835 73 74 1.0 5.0 0.00 0.00 0.00 29 1008.3
20260510112934 73 74 2.0 2.0 0.00 0.00 0.00 30 1008.2
20260510112034 74 64 2.0 5.0 0.00 0.00 0.00 28 1008.3
20260510111134 74 45 2.0 6.0 0.00 0.00 0.00 28 1008.3
20260510110234 74 341 1.0 5.0 0.00 0.00 0.00 26 1008.1
20260510103534 74 324 0.0 2.0 0.00 0.00 0.00 25 1007.9
20260510102634 75 0 0.0 0.0 0.00 0.00 0.00 24 1007.8
20260510101734 75 0 0.0 0.0 0.00 0.00 0.00 23 1007.8
20260510100834 75 0 0.0 0.0 0.00 0.00 0.00 23 1007.7
20260510095934 75 0 0.0 0.0 0.00 0.00 0.00 24 1007.5
20260510094134 75 326 0.0 2.0 0.00 0.00 0.00 22 1007.5
20260510092334 76 0 0.0 0.0 0.00 0.00 0.00 22 1007.5
20260510090534 77 0 0.0 0.0 0.00 0.00 0.00 20 1007.3
20260510084734 79 0 0.0 0.0 0.00 0.00 0.00 19 1007.2
20260510083834 78 0 0.0 0.0 0.00 0.00 0.00 18 1007.2
20260510082034 82 324 2.0 3.0 0.00 0.00 0.00 16 1007.2
20260510081134 83 334 3.0 4.0 0.00 0.00 0.00 15 1007.2
20260510080234 83 318 2.0 5.0 0.00 0.00 0.00 15 1007.2
20260510075335 82 284 1.0 3.0 0.00 0.00 0.00 15 1007.2
20260510074434 82 283 2.0 4.0 0.00 0.00 0.00 15 1007.2
20260510073534 82 282 2.0 4.0 0.00 0.00 0.00 16 1007.1
20260510072634 82 277 3.0 6.0 0.00 0.00 0.00 16 1007.1
20260510071734 82 259 2.0 5.0 0.00 0.00 0.00 16 1007.0
20260510070834 81 253 1.0 4.0 0.00 0.00 0.00 17 1007.0
20260510065034 82 0 0.0 0.0 0.00 0.00 0.00 17 1007.1
20260510063234 84 255 1.0 3.0 0.00 0.00 0.00 16 1006.9
20260510062334 84 256 1.0 3.0 0.00 0.00 0.00 15 1006.8
20260510061434 83 259 0.0 3.0 0.00 0.00 0.00 16 1006.8
20260510060534 84 260 0.0 2.0 0.00 0.00 0.00 16 1006.7
20260510055634 84 261 0.0 1.0 0.00 0.00 0.00 15 1006.6
20260510053834 85 260 1.0 3.0 0.00 0.00 0.00 15 1006.5
20260510052934 85 259 1.0 4.0 0.00 0.00 0.00 15 1006.5
20260510052034 85 257 2.0 3.0 0.00 0.00 0.00 15 1006.4
20260510051134 85 257 2.0 4.0 0.00 0.00 0.00 15 1006.4
20260510050234 86 257 2.0 3.0 0.00 0.00 0.00 14 1006.4
20260510044434 88 270 3.0 4.0 0.00 0.00 0.00 13 1006.2
20260510043534 88 268 3.0 6.0 0.00 0.00 0.00 13 1006.1
20260510041734 89 264 2.0 4.0 0.00 0.00 0.00 12 1005.9
20260510040834 88 260 2.0 4.0 0.00 0.00 0.00 13 1005.8
20260510035934 89 260 2.0 4.0 0.00 0.00 0.00 13 1005.7
20260510035033 90 259 2.0 4.0 0.00 0.00 0.00 12 1005.7
20260510034133 91 255 3.0 5.0 0.00 0.00 0.00 12 1005.5
20260510033233 92 252 3.0 6.0 0.00 0.00 0.00 11 1005.5
20260510032334 92 244 3.0 7.0 0.00 0.00 0.00 11 1005.4
20260510031435 93 247 4.0 8.0 0.00 0.00 0.00 10 1005.3
20260510030533 94 257 4.0 7.0 0.00 0.00 0.00 10 1005.1
20260510025633 94 264 4.0 7.0 0.00 0.00 0.00 10 1005.0
20260510024733 95 256 5.0 10.0 0.00 0.00 0.00 9 1004.9
20260510022933 96 271 7.0 10.0 0.00 0.00 0.00 9 1004.7
20260510021134 98 281 7.0 12.0 0.00 0.00 0.00 8 1004.7
20260510020234 98 275 6.0 11.0 0.00 0.00 0.00 8 1004.6
20260510015333 98 270 8.0 12.0 0.00 0.00 0.00 9 1004.6
20260510014433 99 270 8.0 13.0 0.00 0.00 0.00 8 1004.5
20260510013533 100 274 8.0 14.0 0.00 0.00 0.00 8 1004.5
20260510010833 101 274 7.0 14.0 0.00 0.00 0.00 9 1004.5
20260510005933 102 251 7.0 14.0 0.00 0.00 0.00 9 1004.5
20260510005033 102 277 8.0 14.0 0.00 0.00 0.00 9 1004.5
20260510004133 102 288 8.0 15.0 0.00 0.00 0.00 9 1004.6
20260510003233 103 287 9.0 14.0 0.00 0.00 0.00 8 1004.5
20260510002333 103 269 7.0 17.0 0.00 0.00 0.00 8 1004.5
20260510000533 104 254 6.0 12.0 0.00 0.00 0.00 8 1004.6
20260509235633 104 263 8.0 12.0 0.00 0.00 0.00 7 1004.7
20260509234733 105 279 8.0 18.0 0.00 0.00 0.00 8 1004.8
20260509233833 105 298 7.0 18.0 0.00 0.00 0.00 8 1004.8
20260509232933 105 271 8.0 14.0 0.00 0.00 0.00 8 1005.0
20260509232033 105 289 6.0 15.0 0.00 0.00 0.00 8 1005.0
20260509231133 105 283 5.0 15.0 0.00 0.00 0.00 8 1005.0
20260509230233 105 257 8.0 15.0 0.00 0.00 0.00 7 1005.2
20260509225333 106 282 7.0 16.0 0.00 0.00 0.00 7 1005.3
20260509224433 106 265 4.0 10.0 0.00 0.00 0.00 7 1005.3
20260509223533 105 247 4.0 9.0 0.00 0.00 0.00 8 1005.4
20260509221733 105 273 8.0 12.0 0.00 0.00 0.00 8 1005.8
20260509220833 106 274 7.0 15.0 0.00 0.00 0.00 7 1005.9
20260509215033 106 257 8.0 13.0 0.00 0.00 0.00 8 1006.3
20260509213233 105 277 8.0 12.0 0.00 0.00 0.00 7 1006.6
20260509212333 105 265 8.0 15.0 0.00 0.00 0.00 8 1006.8
20260509211433 105 284 6.0 15.0 0.00 0.00 0.00 8 1006.9
20260509205633 104 278 6.0 10.0 0.00 0.00 0.00 9 1007.1
20260509204733 104 282 6.0 15.0 0.00 0.00 0.00 9 1007.3
20260509203833 104 278 6.0 14.0 0.00 0.00 0.00 9 1007.5
20260509202933 104 253 5.0 11.0 0.00 0.00 0.00 9 1007.6
20260509202033 104 252 4.0 11.0 0.00 0.00 0.00 10 1007.7
20260509201133 102 302 4.0 10.0 0.00 0.00 0.00 11 1007.9
20260509200233 102 233 4.0 8.0 0.00 0.00 0.00 10 1008.0
20260509195333 102 254 4.0 11.0 0.00 0.00 0.00 11 1008.1
20260509194433 102 294 3.0 8.0 0.00 0.00 0.00 11 1008.2
20260509192633 98 249 3.0 6.0 0.00 0.00 0.00 12 1008.5